This is the latest recevied weather packets stored in our database for station/object AB4KN. If no packets are shown the sender has not sent any weather packets the latest 10 day(s).
| Time | Temp. | Humidity | Pressure | Rain* | Wind** | Luminosity | Snow |
|---|---|---|---|---|---|---|---|
| 1778138069 | 19.44° C | 89% | 1016.4 hPa | 0 mm | - | 0 W/m² | - |
| 1778137765 | 19.44° C | 89% | 1016.1 hPa | 0 mm | - | 0 W/m² | - |
| 1778137463 | 19.44° C | 89% | 1016.2 hPa | 0 mm | - | 0 W/m² | - |
| 1778137159 | 19.44° C | 89% | 1016.2 hPa | 0 mm | - | 0 W/m² | - |
| 1778136856 | 19.44° C | 89% | 1016 hPa | 0 mm | - | 0 W/m² | - |
| 1778136553 | 19.44° C | 89% | 1016.2 hPa | 1.27 mm | - | 0 W/m² | - |
| 1778136252 | 19.44° C | 89% | 1015.4 hPa | 4.32 mm | - | 0 W/m² | - |
| 1778135949 | 19.44° C | 89% | 1015.4 hPa | 9.65 mm | - | 0 W/m² | - |
| 1778135646 | 19.44° C | 89% | 1015.9 hPa | 7.87 mm | - | 0 W/m² | - |
| 1778135343 | 19.44° C | 89% | 1015.9 hPa | 1.27 mm | - | 0 W/m² | - |
| 1778135039 | 19.44° C | 89% | 1016.1 hPa | 1.78 mm | - | 0 W/m² | - |
| 1778134737 | 19.44° C | 89% | 1016.2 hPa | 3.05 mm | - | 0 W/m² | - |
| 1778134435 | 19.44° C | 89% | 1016.2 hPa | 4.32 mm | - | 0 W/m² | - |
| 1778134133 | 20° C | 89% | 1016.1 hPa | 3.05 mm | - | 0 W/m² | - |
| 1778133829 | 20° C | 89% | 1017.1 hPa | 0 mm | - | 0 W/m² | - |
| 1778133527 | 20° C | 89% | 1017.1 hPa | 1.78 mm | - | 0 W/m² | - |
| 1778133221 | 20° C | 89% | 1017.4 hPa | 3.05 mm | - | 0 W/m² | - |
| 1778132919 | 20° C | 89% | 1017.2 hPa | 3.05 mm | - | 0 W/m² | - |
| 1778132615 | 20° C | 89% | 1017.2 hPa | 3.05 mm | - | 0 W/m² | - |
| 1778132312 | 20° C | 89% | 1017 hPa | 4.83 mm | - | 0 W/m² | - |
| 1778132010 | 20° C | 89% | 1016.7 hPa | 3.56 mm | - | 0 W/m² | - |
| 1778131708 | 20° C | 89% | 1016.9 hPa | 3.05 mm | - | 0 W/m² | - |
| 1778131404 | 20° C | 89% | 1016.7 hPa | 4.32 mm | - | 0 W/m² | - |
| 1778131102 | 20° C | 89% | 1017.2 hPa | 7.87 mm | - | 0 W/m² | - |
| 1778130800 | 20° C | 89% | 1017.7 hPa | 8.89 mm | - | 0 W/m² | - |
* Rain latest hour (hover to see other rain measurements)
** Current wind speed in m/s (hover to see current wind gust speed)